Miscellaneous Local Product
Issued by NWS Hastings, NE

Home | Current Version | Previous Version | Graphics & Text | Print | Product List | Glossary On
Versions: 1 2 3 4 5 6 7 8 9 10 11 12 13 14 15 16 17 18 19 20 21 22 23 24 25 26 27 28 29 30 31 32 33 34 35 36 37 38 39 40 41 42 43 44 45 46 47 48 49 50
000
AXUS43 KGID 312002
MISGRI

GID CWA HOURLY WEATHER ROUNDUP
NATIONAL WEATHER SERVICE HASTINGS NE
300 PM CDT MON AUG 31 2015

NOTE: "FAIR" INDICATES FEW OR NO CLOUDS BELOW 12,000 FEET WITH NO
SIGNIFICANT WEATHER AND/OR OBSTRUCTIONS TO VISIBILITY.

...SOUTH CENTRAL NEBRASKA...

CITY           SKY/WX    TMP DP  RH WIND       PRES   REMARKS
GRAND ISLAND   SUNNY     88  65  46 S13G20    29.92F HX  90
HASTINGS       SUNNY     88  64  44 S12       29.92F
KEARNEY        SUNNY     88  64  45 SE13      29.92S
ORD            SUNNY     90  62  39 S12G21    29.88F HX  90
YORK           SUNNY     84  70  61 S14       29.92F
AURORA         SUNNY     86  68  54 S12       29.92F
LEXINGTON      SUNNY     89  66  46 SE9       29.92S HX  91
HOLDREGE       SUNNY     86  61  42 S9        29.93S
HEBRON         SUNNY     88  62  42 S9G16     29.92F

...NEBRASKA PANHANDLE...

CITY           SKY/WX    TMP DP  RH WIND       PRES   REMARKS
CHADRON        PTSUNNY   77  55  46 E7        30.00F HAZE
ALLIANCE       PTSUNNY   81  52  36 NE7       30.02S
SCOTTSBLUFF    PTSUNNY   86  50  28 VRB3      30.01F
SIDNEY         CLOUDY    85  51  31 MISG      30.05F

...WESTERN AND NORTH CENTRAL NEBRASKA...

CITY           SKY/WX    TMP DP  RH WIND       PRES   REMARKS
VALENTINE      PTSUNNY   81  58  45 N12       29.97R
AINSWORTH      MOSUNNY   86  60  40 N16       29.94R
ONEILL         SUNNY     89  63  42 S14       29.89S
BROKEN BOW     SUNNY     89  62  40 S7        29.92S
IMPERIAL       MOSUNNY   93  54  26 NE15      29.94F HX  91
NORTH PLATTE   SUNNY     91  56  30 E8        29.92F
MCCOOK         SUNNY     93  57  29 S8        29.90F HX  91

...EASTERN NEBRASKA...

CITY           SKY/WX    TMP DP  RH WIND       PRES   REMARKS
NORFOLK        SUNNY     84  67  56 S15       29.91F
SO SIOUX CITY  MOSUNNY   84  69  60 S15       29.91F
TEKAMAH        MOSUNNY   84  69  60 S10       29.92F
COLUMBUS       SUNNY     82  68  61 SW9       29.93R
ALBION         SUNNY     83  66  56 S13       29.92F
OMAHA EPPLEY   MOSUNNY   85  67  54 S12       29.93F
OFFUTT AFB     MOSUNNY   84  68  58 S12       29.93F
MILLARD        MOSUNNY   84  69  60 S12G17    29.93F
LINCOLN        MOSUNNY   86  68  54 S10G20    29.93F
NEBRASKA CITY  MOSUNNY   85  59  41 S10       29.96S
BEATRICE       SUNNY     85  68  56 S9G17     29.94F
FALLS CITY     SUNNY     88  66  48 S6        29.94F HX  90

...NORTHERN KANSAS...

CITY           SKY/WX    TMP DP  RH WIND       PRES   REMARKS
GOODLAND       SUNNY     93  51  23 SE8       29.96S HX  90
HILL CITY      SUNNY     99  55  23 SW13G18   29.89F HX  97
NORTON         CLEAR     93  52  24 SE10      29.89F HX  90
PHILLIPSBURG   SUNNY     97  57  26 S5        29.89S HX  95
SMITH CENTER   SUNNY     91  59  33 S9G23     29.90S HX  90
HAYS           SUNNY     99  54  22 S15G23    29.88F HX  96
RUSSELL        SUNNY     98  50  19 S21G29    29.88F HX  95
CONCORDIA      SUNNY     90  66  45 S13       29.91F HX  92
SALINA         SUNNY     95  63  34 S16G23    29.90F HX  96
TOPEKA         SUNNY     90  68  48 S9        29.94F HX  94



USA.gov is the U.S. government's official web portal to all federal, state and local government web resources and services.